Time,TemperatureF,DewpointF,PressureIn,WindDirection,WindDirectionDegrees,WindSpeedMPH,WindSpeedGustMPH,Humidity,HourlyPrecipIn,Conditions,Clouds,dailyrainin,SoftwareType,DateUTC
2013-08-02 00:02:00,74.2,72.1,29.91,ENE,68,0.0,0.0,93,0.00,,---,0.00,VWS V14.01,2013-08-02 05:02:00,
2013-08-02 00:05:00,74.2,72.0,29.91,ENE,68,0.0,5.0,93,0.00,,,0.00,Wunderground v.1.15,2013-08-02 05:05:00,
2013-08-02 00:07:00,74.2,72.1,29.91,ENE,68,0.0,0.0,93,0.00,,---,0.00,VWS V14.01,2013-08-02 05:07:00,
2013-08-02 00:10:00,74.2,72.0,29.91,ENE,68,0.0,0.0,93,0.00,,,0.00,Wunderground v.1.15,2013-08-02 05:10:00,
2013-08-02 00:12:00,74.4,72.2,29.91,ENE,68,0.0,0.0,93,0.00,,---,0.00,VWS V14.01,2013-08-02 05:12:00,
2013-08-02 00:15:00,74.6,72.4,29.91,ENE,68,0.0,0.0,93,0.00,,,0.00,Wunderground v.1.15,2013-08-02 05:15:00,
2013-08-02 00:17:00,74.6,72.1,29.91,ENE,68,0.0,0.0,92,0.00,,---,0.00,VWS V14.01,2013-08-02 05:17:00,
2013-08-02 00:20:00,74.6,72.1,29.91,ENE,68,0.0,0.0,92,0.00,,,0.00,Wunderground v.1.15,2013-08-02 05:20:00,
2013-08-02 00:22:00,74.4,71.9,29.91,ENE,68,0.0,0.0,92,0.00,,---,0.00,VWS V14.01,2013-08-02 05:22:00,
2013-08-02 00:25:00,74.4,71.9,29.90,ENE,68,0.0,0.0,92,0.00,,,0.00,Wunderground v.1.15,2013-08-02 05:25:00,
2013-08-02 00:27:00,74.4,71.9,29.90,ENE,68,0.0,0.0,92,0.00,,---,0.00,VWS V14.01,2013-08-02 05:27:00,
2013-08-02 00:30:00,74.4,71.9,29.90,ENE,68,0.0,0.0,92,0.00,,,0.00,Wunderground v.1.15,2013-08-02 05:30:00,
2013-08-02 00:33:00,74.4,71.9,29.90,ENE,68,0.0,0.0,92,0.00,,---,0.00,VWS V14.01,2013-08-02 05:33:00,
2013-08-02 00:35:00,74.4,71.9,29.90,ENE,68,0.0,0.0,92,0.00,,,0.00,Wunderground v.1.15,2013-08-02 05:35:00,
2013-08-02 00:38:00,74.4,71.9,29.90,ENE,68,0.0,0.0,92,0.00,,---,0.00,VWS V14.01,2013-08-02 05:38:00,
2013-08-02 00:43:00,74.2,71.7,29.90,ENE,68,0.0,0.0,92,0.00,,---,0.00,VWS V14.01,2013-08-02 05:43:00,
2013-08-02 00:45:00,74.0,71.5,29.90,ENE,68,0.0,0.0,92,0.00,,,0.00,Wunderground v.1.15,2013-08-02 05:45:00,
2013-08-02 00:48:00,74.0,71.5,29.90,ENE,68,0.0,0.0,92,0.00,,---,0.00,VWS V14.01,2013-08-02 05:48:00,
2013-08-02 00:50:00,74.0,71.5,29.91,ENE,68,0.0,0.0,92,0.00,,,0.00,Wunderground v.1.15,2013-08-02 05:50:00,
2013-08-02 00:54:00,74.0,71.5,29.90,ENE,68,0.0,0.0,92,0.00,,---,0.00,VWS V14.01,2013-08-02 05:54:00,
2013-08-02 00:59:00,73.9,71.4,29.90,ENE,68,0.0,0.0,92,0.00,,---,0.00,VWS V14.01,2013-08-02 05:59:00,
2013-08-02 01:00:00,73.7,71.2,29.90,ENE,68,0.0,0.0,92,0.00,,,0.00,Wunderground v.1.15,2013-08-02 06:00:00,
2013-08-02 01:04:00,73.7,71.2,29.91,ENE,68,0.0,0.0,92,0.00,,---,0.00,VWS V14.01,2013-08-02 06:04:00,
2013-08-02 01:09:00,73.5,71.0,29.91,ENE,68,0.0,0.0,92,0.00,,---,0.00,VWS V14.01,2013-08-02 06:09:00,
2013-08-02 01:10:00,73.5,71.0,29.91,ENE,68,0.0,0.0,92,0.00,,,0.00,Wunderground v.1.15,2013-08-02 06:10:00,
2013-08-02 01:14:00,73.5,71.0,29.91,ENE,68,0.0,0.0,92,0.00,,---,0.00,VWS V14.01,2013-08-02 06:14:00,
2013-08-02 01:19:00,73.7,71.6,29.91,ENE,68,0.0,0.0,93,0.00,,---,0.00,VWS V14.01,2013-08-02 06:19:00,
2013-08-02 01:20:00,73.7,71.5,29.91,ENE,68,0.0,0.0,93,0.00,,,0.00,Wunderground v.1.15,2013-08-02 06:20:00,
2013-08-02 01:25:00,73.9,71.8,29.91,ENE,68,0.0,1.0,93,0.00,,---,0.00,VWS V14.01,2013-08-02 06:25:00,
2013-08-02 01:30:00,73.9,71.4,29.91,ENE,68,0.0,1.0,92,0.00,,---,0.00,VWS V14.01,2013-08-02 06:30:00,
2013-08-02 01:35:00,73.9,71.8,29.91,ENE,68,0.0,0.0,93,0.00,,---,0.00,VWS V14.01,2013-08-02 06:35:00,
2013-08-02 01:40:00,73.7,71.2,29.91,ENE,68,0.0,0.0,92,0.00,,,0.00,Wunderground v.1.15,2013-08-02 06:40:00,
2013-08-02 01:45:00,73.9,71.4,29.90,ENE,68,0.0,0.0,92,0.00,,,0.00,Wunderground v.1.15,2013-08-02 06:45:00,
2013-08-02 01:50:00,73.7,71.2,29.90,ENE,68,0.0,0.0,92,0.00,,---,0.00,VWS V14.01,2013-08-02 06:50:00,
2013-08-02 01:55:00,73.7,71.2,29.91,ENE,68,0.0,0.0,92,0.00,,,0.00,Wunderground v.1.15,2013-08-02 06:55:00,
2013-08-02 02:00:00,73.7,71.2,29.91,ENE,68,0.0,0.0,92,0.00,,,0.00,Wunderground v.1.15,2013-08-02 07:00:00,
2013-08-02 02:05:00,73.7,71.2,29.90,ENE,68,0.0,0.0,92,0.00,,,0.00,Wunderground v.1.15,2013-08-02 07:05:00,
2013-08-02 02:10:00,73.9,71.8,29.90,ENE,68,0.0,0.0,93,0.00,,---,0.00,VWS V14.01,2013-08-02 07:10:00,
2013-08-02 02:15:00,73.9,71.7,29.90,ENE,68,0.0,0.0,93,0.00,,,0.00,Wunderground v.1.15,2013-08-02 07:15:00,
2013-08-02 02:20:00,73.9,71.7,29.90,ENE,68,0.0,0.0,93,0.00,,,0.00,Wunderground v.1.15,2013-08-02 07:20:00,
2013-08-02 02:25:00,73.5,71.0,29.90,ENE,68,0.0,0.0,92,0.00,,,0.00,Wunderground v.1.15,2013-08-02 07:25:00,
2013-08-02 02:26:00,73.5,71.0,29.90,ENE,68,0.0,0.0,92,0.00,,---,0.00,VWS V14.01,2013-08-02 07:26:00,
2013-08-02 02:30:00,73.5,71.0,29.90,ENE,68,0.0,0.0,92,0.00,,,0.00,Wunderground v.1.15,2013-08-02 07:30:00,
2013-08-02 02:31:00,73.5,71.0,29.90,ENE,68,0.0,0.0,92,0.00,,---,0.00,VWS V14.01,2013-08-02 07:31:00,
2013-08-02 02:35:00,73.3,70.8,29.90,ENE,68,0.0,0.0,92,0.00,,,0.00,Wunderground v.1.15,2013-08-02 07:35:00,
2013-08-02 02:36:00,73.3,70.8,29.90,ENE,68,0.0,0.0,92,0.00,,---,0.00,VWS V14.01,2013-08-02 07:36:00,
2013-08-02 02:40:00,73.3,70.8,29.90,ENE,68,0.0,0.0,92,0.00,,,0.00,Wunderground v.1.15,2013-08-02 07:40:00,
2013-08-02 02:41:00,73.3,70.8,29.90,ENE,68,0.0,0.0,92,0.00,,---,0.00,VWS V14.01,2013-08-02 07:41:00,
2013-08-02 02:45:00,73.3,71.2,29.90,ENE,68,0.0,0.0,93,0.00,,,0.00,Wunderground v.1.15,2013-08-02 07:45:00,
2013-08-02 02:46:00,73.3,71.2,29.90,ENE,68,0.0,0.0,93,0.00,,---,0.00,VWS V14.01,2013-08-02 07:46:00,
2013-08-02 02:50:00,73.3,71.2,29.90,ENE,68,0.0,0.0,93,0.00,,,0.00,Wunderground v.1.15,2013-08-02 07:50:00,
2013-08-02 02:52:00,73.3,71.2,29.90,ENE,68,0.0,0.0,93,0.00,,---,0.00,VWS V14.01,2013-08-02 07:52:00,
2013-08-02 02:55:00,73.3,71.2,29.90,ENE,68,0.0,0.0,93,0.00,,,0.00,Wunderground v.1.15,2013-08-02 07:55:00,
2013-08-02 02:57:00,73.3,71.2,29.90,ENE,68,0.0,0.0,93,0.00,,---,0.00,VWS V14.01,2013-08-02 07:57:00,
2013-08-02 03:02:00,73.3,71.5,29.90,ENE,68,0.0,1.0,94,0.00,,---,0.00,VWS V14.01,2013-08-02 08:02:00,
2013-08-02 03:05:00,73.7,71.9,29.90,ENE,68,0.0,0.0,94,0.00,,,0.00,Wunderground v.1.15,2013-08-02 08:05:00,
2013-08-02 03:07:00,73.9,72.1,29.90,ENE,68,0.0,1.0,94,0.00,,---,0.00,VWS V14.01,2013-08-02 08:07:00,
2013-08-02 03:10:00,73.9,72.1,29.90,ENE,68,0.0,0.0,94,0.00,,,0.00,Wunderground v.1.15,2013-08-02 08:10:00,
2013-08-02 03:12:00,73.9,72.1,29.90,ENE,68,0.0,0.0,94,0.00,,---,0.00,VWS V14.01,2013-08-02 08:12:00,
2013-08-02 03:15:00,74.0,72.2,29.90,ENE,68,0.0,0.0,94,0.00,,,0.00,Wunderground v.1.15,2013-08-02 08:15:00,
2013-08-02 03:17:00,74.2,72.4,29.90,ENE,68,0.0,1.0,94,0.00,,---,0.00,VWS V14.01,2013-08-02 08:17:00,
2013-08-02 03:20:00,74.2,72.4,29.89,ENE,68,0.0,0.0,94,0.00,,,0.00,Wunderground v.1.15,2013-08-02 08:20:00,
2013-08-02 03:22:00,74.2,72.1,29.89,ENE,68,0.0,0.0,93,0.00,,---,0.00,VWS V14.01,2013-08-02 08:22:00,
2013-08-02 03:25:00,74.2,72.0,29.89,ENE,68,0.0,0.0,93,0.00,,,0.00,Wunderground v.1.15,2013-08-02 08:25:00,
2013-08-02 03:28:00,74.2,72.1,29.89,ENE,68,0.0,0.0,93,0.00,,---,0.00,VWS V14.01,2013-08-02 08:28:00,
2013-08-02 03:30:00,74.2,72.0,29.89,ENE,68,0.0,0.0,93,0.00,,,0.00,Wunderground v.1.15,2013-08-02 08:30:00,
2013-08-02 03:33:00,74.2,72.1,29.89,ENE,68,0.0,0.0,93,0.00,,---,0.00,VWS V14.01,2013-08-02 08:33:00,
2013-08-02 03:35:00,74.2,72.0,29.89,ENE,68,0.0,0.0,93,0.00,,,0.00,Wunderground v.1.15,2013-08-02 08:35:00,
2013-08-02 03:38:00,74.4,72.6,29.89,ENE,68,0.0,0.0,94,0.00,,---,0.00,VWS V14.01,2013-08-02 08:38:00,
2013-08-02 03:40:00,74.4,72.2,29.89,ENE,68,0.0,0.0,93,0.00,,,0.00,Wunderground v.1.15,2013-08-02 08:40:00,
2013-08-02 03:43:00,74.4,72.6,29.89,ENE,68,0.0,0.0,94,0.00,,---,0.00,VWS V14.01,2013-08-02 08:43:00,
2013-08-02 03:45:00,74.4,72.6,29.89,ENE,64,0.0,0.0,94,0.00,,,0.00,Wunderground v.1.15,2013-08-02 08:45:00,
2013-08-02 03:48:00,74.4,72.2,29.89,ENE,64,0.0,0.0,93,0.00,,---,0.00,VWS V14.01,2013-08-02 08:48:00,
2013-08-02 03:50:00,74.4,72.2,29.89,ENE,64,0.0,0.0,93,0.00,,,0.00,Wunderground v.1.15,2013-08-02 08:50:00,
2013-08-02 03:53:00,74.4,72.6,29.89,ENE,64,0.0,2.0,94,0.00,,---,0.00,VWS V14.01,2013-08-02 08:53:00,
2013-08-02 03:55:00,74.4,72.6,29.89,ENE,64,0.0,0.0,94,0.00,,,0.00,Wunderground v.1.15,2013-08-02 08:55:00,
2013-08-02 03:58:00,74.6,72.4,29.89,ENE,64,0.0,2.0,93,0.00,,---,0.00,VWS V14.01,2013-08-02 08:58:00,
2013-08-02 04:00:00,74.6,72.4,29.89,ENE,64,0.0,0.0,93,0.00,,,0.00,Wunderground v.1.15,2013-08-02 09:00:00,
2013-08-02 04:03:00,74.6,72.4,29.89,ENE,64,0.0,0.0,93,0.00,,---,0.00,VWS V14.01,2013-08-02 09:03:00,
2013-08-02 04:05:00,74.6,72.4,29.89,ENE,64,0.0,0.0,93,0.00,,,0.00,Wunderground v.1.15,2013-08-02 09:05:00,
2013-08-02 04:09:00,74.6,72.4,29.89,ENE,64,0.0,0.0,93,0.00,,---,0.00,VWS V14.01,2013-08-02 09:09:00,
2013-08-02 04:10:00,74.6,72.4,29.89,ENE,64,0.0,0.0,93,0.00,,,0.00,Wunderground v.1.15,2013-08-02 09:10:00,
2013-08-02 04:14:00,74.4,72.2,29.89,ENE,64,0.0,1.0,93,0.00,,---,0.00,VWS V14.01,2013-08-02 09:14:00,
2013-08-02 04:15:00,74.4,72.2,29.89,ENE,64,0.0,0.0,93,0.00,,,0.00,Wunderground v.1.15,2013-08-02 09:15:00,
2013-08-02 04:19:00,74.4,72.2,29.89,ENE,64,0.0,1.0,93,0.00,,---,0.00,VWS V14.01,2013-08-02 09:19:00,
2013-08-02 04:20:00,74.4,72.2,29.89,ENE,64,0.0,0.0,93,0.00,,,0.00,Wunderground v.1.15,2013-08-02 09:20:00,
2013-08-02 04:24:00,74.4,72.2,29.89,ENE,64,0.0,0.0,93,0.00,,---,0.00,VWS V14.01,2013-08-02 09:24:00,
2013-08-02 04:25:00,74.4,72.2,29.89,ENE,64,0.0,2.0,93,0.00,,,0.00,Wunderground v.1.15,2013-08-02 09:25:00,
2013-08-02 04:29:00,74.4,72.2,29.89,ENE,64,1.0,2.0,93,0.00,,---,0.00,VWS V14.01,2013-08-02 09:29:00,
2013-08-02 04:30:00,74.4,72.2,29.89,ENE,64,0.0,0.0,93,0.00,,,0.00,Wunderground v.1.15,2013-08-02 09:30:00,
2013-08-02 04:34:00,74.4,72.2,29.89,ENE,64,0.0,0.0,93,0.00,,---,0.00,VWS V14.01,2013-08-02 09:34:00,
2013-08-02 04:35:00,74.4,72.2,29.89,ENE,64,0.0,0.0,93,0.00,,,0.00,Wunderground v.1.15,2013-08-02 09:35:00,
2013-08-02 04:39:00,74.4,72.2,29.89,ENE,64,0.0,1.0,93,0.00,,---,0.00,VWS V14.01,2013-08-02 09:39:00,
2013-08-02 04:40:00,74.4,72.2,29.88,ENE,64,0.0,0.0,93,0.00,,,0.00,Wunderground v.1.15,2013-08-02 09:40:00,
2013-08-02 04:44:00,74.4,72.2,29.89,ENE,64,0.0,0.0,93,0.00,,---,0.00,VWS V14.01,2013-08-02 09:44:00,
2013-08-02 04:45:00,74.4,72.2,29.89,ENE,64,0.0,0.0,93,0.00,,,0.00,Wunderground v.1.15,2013-08-02 09:45:00,
2013-08-02 04:49:00,74.4,72.2,29.89,ENE,64,0.0,0.0,93,0.00,,---,0.00,VWS V14.01,2013-08-02 09:49:00,
2013-08-02 04:50:00,74.4,72.2,29.89,ENE,64,0.0,0.0,93,0.00,,,0.00,Wunderground v.1.15,2013-08-02 09:50:00,
2013-08-02 04:54:00,74.2,72.1,29.88,ENE,64,0.0,0.0,93,0.00,,---,0.00,VWS V14.01,2013-08-02 09:54:00,
2013-08-02 04:55:00,74.2,72.0,29.88,ENE,64,0.0,0.0,93,0.00,,,0.00,Wunderground v.1.15,2013-08-02 09:55:00,
2013-08-02 04:59:00,74.2,72.1,29.88,ENE,64,0.0,0.0,93,0.00,,---,0.00,VWS V14.01,2013-08-02 09:59:00,
2013-08-02 05:00:00,74.2,72.0,29.88,ENE,64,0.0,0.0,93,0.00,,,0.00,Wunderground v.1.15,2013-08-02 10:00:00,
2013-08-02 05:04:00,74.2,72.1,29.88,ENE,64,0.0,0.0,93,0.00,,---,0.00,VWS V14.01,2013-08-02 10:04:00,
2013-08-02 05:05:00,74.2,72.0,29.88,ENE,64,0.0,0.0,93,0.00,,,0.00,Wunderground v.1.15,2013-08-02 10:05:00,
2013-08-02 05:09:00,74.2,72.1,29.88,ENE,64,0.0,0.0,93,0.00,,---,0.00,VWS V14.01,2013-08-02 10:09:00,
2013-08-02 05:10:00,74.2,72.0,29.88,ENE,64,0.0,0.0,93,0.00,,,0.00,Wunderground v.1.15,2013-08-02 10:10:00,
2013-08-02 05:15:00,74.0,71.8,29.88,ENE,64,0.0,0.0,93,0.00,,---,0.00,VWS V14.01,2013-08-02 10:15:00,
2013-08-02 05:20:00,74.0,71.8,29.88,ENE,64,0.0,0.0,93,0.00,,---,0.00,VWS V14.01,2013-08-02 10:20:00,
2013-08-02 05:25:00,74.0,71.8,29.88,ENE,64,0.0,0.0,93,0.00,,,0.00,Wunderground v.1.15,2013-08-02 10:25:00,
2013-08-02 05:30:00,74.0,71.8,29.88,ENE,64,0.0,0.0,93,0.00,,,0.00,Wunderground v.1.15,2013-08-02 10:30:00,
2013-08-02 05:35:00,74.0,71.8,29.89,ENE,64,0.0,0.0,93,0.00,,---,0.00,VWS V14.01,2013-08-02 10:35:00,
2013-08-02 05:40:00,74.0,72.2,29.89,ENE,64,0.0,2.0,94,0.00,,---,0.00,VWS V14.01,2013-08-02 10:40:00,
2013-08-02 05:45:00,74.0,71.8,29.89,ENE,68,0.0,3.0,93,0.00,,---,0.00,VWS V14.01,2013-08-02 10:45:00,
2013-08-02 05:50:00,74.0,71.8,29.89,ENE,68,0.0,0.0,93,0.00,,---,0.00,VWS V14.01,2013-08-02 10:50:00,
2013-08-02 05:55:00,74.0,71.8,29.89,ENE,68,0.0,0.0,93,0.00,,,0.00,Wunderground v.1.15,2013-08-02 10:55:00,
2013-08-02 06:00:00,74.0,71.8,29.89,ENE,68,0.0,0.0,93,0.00,,,0.00,Wunderground v.1.15,2013-08-02 11:00:00,
2013-08-02 06:05:00,73.9,71.8,29.89,ENE,68,0.0,0.0,93,0.00,,---,0.00,VWS V14.01,2013-08-02 11:05:00,
2013-08-02 06:10:00,73.9,71.7,29.89,ENE,68,0.0,0.0,93,0.00,,,0.00,Wunderground v.1.15,2013-08-02 11:10:00,
2013-08-02 06:15:00,73.9,71.7,29.89,ENE,68,0.0,0.0,93,0.00,,,0.00,Wunderground v.1.15,2013-08-02 11:15:00,
2013-08-02 06:20:00,73.9,71.7,29.89,ENE,68,0.0,0.0,93,0.00,,,0.00,Wunderground v.1.15,2013-08-02 11:20:00,
2013-08-02 06:25:00,73.9,71.7,29.89,ENE,68,0.0,0.0,93,0.00,,,0.00,Wunderground v.1.15,2013-08-02 11:25:00,
2013-08-02 06:30:00,73.9,72.1,29.89,ENE,68,0.0,0.0,94,0.00,,,0.00,Wunderground v.1.15,2013-08-02 11:30:00,
2013-08-02 06:31:00,73.9,72.1,29.89,ENE,68,0.0,0.0,94,0.00,,---,0.00,VWS V14.01,2013-08-02 11:31:00,
2013-08-02 06:35:00,73.9,71.7,29.89,ENE,68,0.0,0.0,93,0.00,,,0.00,Wunderground v.1.15,2013-08-02 11:35:00,
2013-08-02 06:36:00,73.7,71.9,29.89,ENE,68,0.0,0.0,94,0.00,,---,0.00,VWS V14.01,2013-08-02 11:36:00,
2013-08-02 06:40:00,73.7,71.9,29.89,ENE,68,0.0,0.0,94,0.00,,,0.00,Wunderground v.1.15,2013-08-02 11:40:00,
2013-08-02 06:41:00,73.7,71.9,29.89,ENE,68,0.0,0.0,94,0.00,,---,0.00,VWS V14.01,2013-08-02 11:41:00,
2013-08-02 06:45:00,73.7,71.9,29.90,ENE,68,0.0,0.0,94,0.00,,,0.00,Wunderground v.1.15,2013-08-02 11:45:00,
2013-08-02 06:46:00,73.9,72.1,29.90,ENE,68,0.0,2.0,94,0.00,,---,0.00,VWS V14.01,2013-08-02 11:46:00,
2013-08-02 06:50:00,73.9,72.1,29.90,ENE,61,0.0,1.0,94,0.00,,,0.00,Wunderground v.1.15,2013-08-02 11:50:00,
2013-08-02 06:51:00,73.9,72.1,29.90,ENE,61,2.0,2.0,94,0.00,,---,0.00,VWS V14.01,2013-08-02 11:51:00,
2013-08-02 06:55:00,73.9,72.1,29.90,ENE,61,1.0,1.0,94,0.00,,,0.00,Wunderground v.1.15,2013-08-02 11:55:00,
2013-08-02 06:57:00,73.9,72.1,29.90,ENE,61,1.0,3.0,94,0.00,,---,0.00,VWS V14.01,2013-08-02 11:57:00,
2013-08-02 07:00:00,73.9,71.7,29.90,ENE,61,1.0,1.0,93,0.00,,,0.00,Wunderground v.1.15,2013-08-02 12:00:00,
2013-08-02 07:02:00,73.9,72.1,29.90,ENE,61,1.0,1.0,94,0.00,,---,0.00,VWS V14.01,2013-08-02 12:02:00,
2013-08-02 07:05:00,73.9,72.1,29.90,ENE,61,0.0,1.0,94,0.00,,,0.00,Wunderground v.1.15,2013-08-02 12:05:00,
2013-08-02 07:07:00,73.9,72.1,29.90,ENE,61,0.0,1.0,94,0.00,,---,0.00,VWS V14.01,2013-08-02 12:07:00,
2013-08-02 07:10:00,74.0,72.2,29.90,ENE,61,0.0,0.0,94,0.00,,,0.00,Wunderground v.1.15,2013-08-02 12:10:00,
2013-08-02 07:12:00,74.0,72.2,29.90,ENE,63,0.0,1.0,94,0.00,,---,0.00,VWS V14.01,2013-08-02 12:12:00,
2013-08-02 07:15:00,74.0,72.2,29.90,ENE,63,0.0,0.0,94,0.00,,,0.00,Wunderground v.1.15,2013-08-02 12:15:00,
2013-08-02 07:17:00,74.2,72.1,29.90,ENE,63,0.0,1.0,93,0.00,,---,0.00,VWS V14.01,2013-08-02 12:17:00,
2013-08-02 07:20:00,74.2,72.4,29.91,ENE,63,0.0,0.0,94,0.00,,,0.00,Wunderground v.1.15,2013-08-02 12:20:00,
2013-08-02 07:23:00,74.2,72.4,29.91,ENE,63,0.0,0.0,94,0.00,,---,0.00,VWS V14.01,2013-08-02 12:23:00,
2013-08-02 07:25:00,74.4,72.6,29.91,ENE,63,0.0,1.0,94,0.00,,,0.00,Wunderground v.1.15,2013-08-02 12:25:00,
2013-08-02 07:28:00,74.4,72.2,29.91,ENE,63,0.0,1.0,93,0.00,,---,0.00,VWS V14.01,2013-08-02 12:28:00,
2013-08-02 07:30:00,74.4,72.2,29.91,ENE,63,0.0,0.0,93,0.00,,,0.00,Wunderground v.1.15,2013-08-02 12:30:00,
2013-08-02 07:33:00,74.6,72.4,29.91,ENE,63,0.0,3.0,93,0.00,,---,0.00,VWS V14.01,2013-08-02 12:33:00,
2013-08-02 07:35:00,74.6,72.4,29.91,ENE,63,1.0,1.0,93,0.00,,,0.00,Wunderground v.1.15,2013-08-02 12:35:00,
2013-08-02 07:38:00,74.7,72.6,29.91,ENE,63,0.0,3.0,93,0.00,,---,0.00,VWS V14.01,2013-08-02 12:38:00,
2013-08-02 07:40:00,74.9,72.7,29.91,ENE,63,1.0,1.0,93,0.00,,,0.00,Wunderground v.1.15,2013-08-02 12:40:00,
2013-08-02 07:43:00,74.9,72.7,29.91,ENE,67,0.0,2.0,93,0.00,,---,0.00,VWS V14.01,2013-08-02 12:43:00,
2013-08-02 07:45:00,74.9,72.7,29.91,ENE,67,1.0,1.0,93,0.00,,,0.00,Wunderground v.1.15,2013-08-02 12:45:00,
2013-08-02 07:48:00,75.1,72.9,29.91,NE,49,0.0,3.0,93,0.00,,---,0.00,VWS V14.01,2013-08-02 12:48:00,
2013-08-02 07:50:00,75.3,73.1,29.91,ENE,71,1.0,2.0,93,0.00,,,0.00,Wunderground v.1.15,2013-08-02 12:50:00,
2013-08-02 07:53:00,75.3,73.1,29.91,NE,53,2.0,5.0,93,0.00,,---,0.00,VWS V14.01,2013-08-02 12:53:00,
2013-08-02 07:55:00,75.3,73.1,29.91,ENE,73,2.0,6.0,93,0.00,,,0.00,Wunderground v.1.15,2013-08-02 12:55:00,
2013-08-02 07:58:00,75.3,72.8,29.91,NNE,29,2.0,6.0,92,0.00,,---,0.00,VWS V14.01,2013-08-02 12:58:00,
2013-08-02 08:00:00,75.4,72.9,29.91,NE,53,2.0,2.0,92,0.00,,,0.00,Wunderground v.1.15,2013-08-02 13:00:00,
2013-08-02 08:04:00,75.6,73.1,29.91,NE,53,2.0,5.0,92,0.00,,---,0.00,VWS V14.01,2013-08-02 13:04:00,
2013-08-02 08:05:00,75.6,73.1,29.91,NE,51,2.0,2.0,92,0.00,,,0.00,Wunderground v.1.15,2013-08-02 13:05:00,
2013-08-02 08:09:00,76.0,73.5,29.91,NE,50,0.0,5.0,92,0.00,,---,0.00,VWS V14.01,2013-08-02 13:09:00,
2013-08-02 08:10:00,76.0,73.5,29.91,NE,50,1.0,1.0,92,0.00,,,0.00,Wunderground v.1.15,2013-08-02 13:10:00,
2013-08-02 08:14:00,76.3,73.5,29.92,NE,50,0.0,2.0,91,0.00,,---,0.00,VWS V14.01,2013-08-02 13:14:00,
2013-08-02 08:15:00,76.3,73.5,29.92,NE,56,1.0,1.0,91,0.00,,,0.00,Wunderground v.1.15,2013-08-02 13:15:00,
2013-08-02 08:19:00,76.5,73.7,29.92,ENE,71,5.0,7.0,91,0.00,,---,0.00,VWS V14.01,2013-08-02 13:19:00,
2013-08-02 08:20:00,76.7,73.2,29.92,ENE,71,3.0,3.0,89,0.00,,,0.00,Wunderground v.1.15,2013-08-02 13:20:00,
2013-08-02 08:24:00,77.0,73.5,29.92,ENE,63,3.0,3.0,89,0.00,,---,0.00,VWS V14.01,2013-08-02 13:24:00,
2013-08-02 08:25:00,77.0,73.5,29.92,ENE,61,2.0,6.0,89,0.00,,,0.00,Wunderground v.1.15,2013-08-02 13:25:00,
2013-08-02 08:29:00,77.4,73.9,29.92,ENE,57,1.0,6.0,89,0.00,,---,0.00,VWS V14.01,2013-08-02 13:29:00,
2013-08-02 08:30:00,77.6,74.1,29.92,NE,56,2.0,2.0,89,0.00,,,0.00,Wunderground v.1.15,2013-08-02 13:30:00,
2013-08-02 08:34:00,77.9,73.7,29.92,ENE,57,1.0,5.0,87,0.00,,---,0.00,VWS V14.01,2013-08-02 13:34:00,
2013-08-02 08:35:00,77.9,73.7,29.92,ENE,57,2.0,2.0,87,0.00,,,0.00,Wunderground v.1.15,2013-08-02 13:35:00,
2013-08-02 08:40:00,78.3,74.1,29.92,NNW,339,0.0,5.0,87,0.00,,---,0.00,VWS V14.01,2013-08-02 13:40:00,
2013-08-02 08:45:00,78.5,74.0,29.91,ENE,68,2.0,7.0,86,0.00,,,0.00,Wunderground v.1.15,2013-08-02 13:45:00,
2013-08-02 08:50:00,78.8,74.3,29.91,ENE,60,3.0,3.0,86,0.00,,,0.00,Wunderground v.1.15,2013-08-02 13:50:00,
2013-08-02 08:55:00,78.8,74.3,29.91,NNW,328,3.0,3.0,86,0.00,,,0.00,Wunderground v.1.15,2013-08-02 13:55:00,
2013-08-02 09:00:00,79.8,74.2,29.91,ENE,70,2.0,2.0,83,0.00,,,0.00,Wunderground v.1.15,2013-08-02 14:00:00,
2013-08-02 09:05:00,79.9,74.3,29.91,ENE,57,2.0,5.0,83,0.00,,,0.00,Wunderground v.1.15,2013-08-02 14:05:00,
2013-08-02 09:10:00,80.3,74.3,29.91,NE,56,2.0,2.0,82,0.00,,,0.00,Wunderground v.1.15,2013-08-02 14:10:00,
2013-08-02 09:15:00,80.9,74.9,29.91,NE,49,2.0,3.0,82,0.00,,,0.00,Wunderground v.1.15,2013-08-02 14:15:00,
2013-08-02 09:20:00,81.2,74.4,29.91,NE,46,2.0,3.0,80,0.00,,,0.00,Wunderground v.1.15,2013-08-02 14:20:00,
2013-08-02 09:25:00,81.6,74.8,29.91,NNE,27,3.0,3.0,80,0.00,,,0.00,Wunderground v.1.15,2013-08-02 14:25:00,
2013-08-02 09:30:00,82.0,75.6,29.91,ENE,74,3.0,3.0,81,0.00,,,0.00,Wunderground v.1.15,2013-08-02 14:30:00,
2013-08-02 09:35:00,82.2,75.0,29.90,ENE,77,2.0,3.0,79,0.00,,,0.00,Wunderground v.1.15,2013-08-02 14:35:00,
2013-08-02 09:36:00,82.4,75.2,29.90,East,101,1.0,5.0,79,0.00,,---,0.00,VWS V14.01,2013-08-02 14:36:00,
2013-08-02 09:40:00,82.6,75.8,29.90,SSW,212,3.0,3.0,80,0.00,,,0.00,Wunderground v.1.15,2013-08-02 14:40:00,
2013-08-02 09:41:00,82.6,75.8,29.90,SSW,212,1.0,1.0,80,0.00,,---,0.00,VWS V14.01,2013-08-02 14:41:00,
2013-08-02 09:45:00,83.0,76.2,29.90,SSW,200,1.0,3.0,80,0.00,,,0.00,Wunderground v.1.15,2013-08-02 14:45:00,
2013-08-02 09:46:00,83.2,76.4,29.90,SSE,157,2.0,2.0,80,0.00,,---,0.00,VWS V14.01,2013-08-02 14:46:00,
2013-08-02 09:50:00,83.2,76.4,29.90,ENE,59,1.0,1.0,80,0.00,,,0.00,Wunderground v.1.15,2013-08-02 14:50:00,
2013-08-02 09:52:00,83.2,76.4,29.90,ENE,59,1.0,1.0,80,0.00,,---,0.00,VWS V14.01,2013-08-02 14:52:00,
2013-08-02 09:55:00,83.2,76.4,29.90,ENE,71,2.0,2.0,80,0.00,,,0.00,Wunderground v.1.15,2013-08-02 14:55:00,
2013-08-02 09:57:00,83.2,76.4,29.90,ENE,71,2.0,2.0,80,0.00,,---,0.00,VWS V14.01,2013-08-02 14:57:00,
2013-08-02 10:00:00,83.2,76.4,29.90,South,170,1.0,1.0,80,0.00,,,0.00,Wunderground v.1.15,2013-08-02 15:00:00,
2013-08-02 10:02:00,83.2,76.4,29.90,South,170,1.0,1.0,80,0.00,,---,0.00,VWS V14.01,2013-08-02 15:02:00,
2013-08-02 10:05:00,83.2,76.4,29.90,SSW,204,2.0,2.0,80,0.00,,,0.00,Wunderground v.1.15,2013-08-02 15:05:00,
2013-08-02 10:07:00,83.2,76.4,29.90,SSW,204,2.0,2.0,80,0.00,,---,0.00,VWS V14.01,2013-08-02 15:07:00,
2013-08-02 10:10:00,84.3,77.5,29.90,NNE,22,2.0,2.0,80,0.00,,,0.00,Wunderground v.1.15,2013-08-02 15:10:00,
2013-08-02 10:12:00,84.3,77.5,29.90,SE,136,3.0,3.0,80,0.00,,---,0.00,VWS V14.01,2013-08-02 15:12:00,
2013-08-02 10:15:00,84.7,77.8,29.90,South,191,1.0,2.0,80,0.00,,,0.00,Wunderground v.1.15,2013-08-02 15:15:00,
2013-08-02 10:17:00,84.7,77.8,29.90,South,191,1.0,3.0,80,0.00,,---,0.00,VWS V14.01,2013-08-02 15:17:00,
2013-08-02 10:20:00,84.7,77.8,29.90,SE,140,1.0,1.0,80,0.00,,,0.00,Wunderground v.1.15,2013-08-02 15:20:00,
2013-08-02 10:23:00,85.3,78.4,29.90,SE,138,1.0,1.0,80,0.00,,---,0.00,VWS V14.01,2013-08-02 15:23:00,
2013-08-02 10:25:00,85.3,78.4,29.90,ENE,61,1.0,2.0,80,0.00,,,0.00,Wunderground v.1.15,2013-08-02 15:25:00,
2013-08-02 10:28:00,85.5,78.6,29.90,East,87,1.0,3.0,80,0.00,,---,0.00,VWS V14.01,2013-08-02 15:28:00,
2013-08-02 10:30:00,85.7,78.8,29.90,ENE,61,2.0,3.0,80,0.00,,,0.00,Wunderground v.1.15,2013-08-02 15:30:00,
2013-08-02 10:33:00,85.7,76.1,29.90,SSW,201,1.0,3.0,73,0.00,,---,0.00,VWS V14.01,2013-08-02 15:33:00,
2013-08-02 10:35:00,85.9,75.8,29.90,South,170,2.0,3.0,72,0.00,,,0.00,Wunderground v.1.15,2013-08-02 15:35:00,
2013-08-02 10:38:00,85.9,75.8,29.90,ENE,74,1.0,3.0,72,0.00,,---,0.00,VWS V14.01,2013-08-02 15:38:00,
2013-08-02 10:40:00,86.3,77.0,29.90,SE,135,2.0,2.0,74,0.00,,,0.00,Wunderground v.1.15,2013-08-02 15:40:00,
2013-08-02 10:43:00,86.1,76.8,29.90,SSE,153,2.0,3.0,74,0.00,,---,0.00,VWS V14.01,2013-08-02 15:43:00,
2013-08-02 10:45:00,86.3,77.0,29.90,NE,51,2.0,5.0,74,0.00,,,0.00,Wunderground v.1.15,2013-08-02 15:45:00,
2013-08-02 10:49:00,85.9,75.4,29.91,NE,50,0.0,5.0,71,0.00,,---,0.00,VWS V14.01,2013-08-02 15:49:00,
2013-08-02 10:50:00,85.9,75.4,29.91,NE,50,3.0,3.0,71,0.00,,,0.00,Wunderground v.1.15,2013-08-02 15:50:00,
2013-08-02 10:54:00,85.9,75.4,29.90,ENE,73,2.0,2.0,71,0.00,,---,0.00,VWS V14.01,2013-08-02 15:54:00,
2013-08-02 10:55:00,86.5,76.0,29.90,South,187,3.0,3.0,71,0.00,,,0.00,Wunderground v.1.15,2013-08-02 15:55:00,
2013-08-02 10:59:00,86.7,75.8,29.90,SSW,200,0.0,3.0,70,0.00,,---,0.00,VWS V14.01,2013-08-02 15:59:00,
2013-08-02 11:00:00,87.0,76.5,29.90,SSW,200,2.0,2.0,71,0.00,,,0.00,Wunderground v.1.15,2013-08-02 16:00:00,
2013-08-02 11:04:00,87.4,76.8,29.91,South,186,1.0,3.0,71,0.00,,---,0.00,VWS V14.01,2013-08-02 16:04:00,
2013-08-02 11:05:00,87.4,76.8,29.91,South,186,2.0,2.0,71,0.00,,,0.00,Wunderground v.1.15,2013-08-02 16:05:00,
2013-08-02 11:09:00,87.4,76.0,29.91,South,170,0.0,5.0,69,0.00,,---,0.00,VWS V14.01,2013-08-02 16:09:00,
2013-08-02 11:10:00,87.4,76.0,29.91,South,169,2.0,2.0,69,0.00,,,0.00,Wunderground v.1.15,2013-08-02 16:10:00,
2013-08-02 11:14:00,87.6,77.0,29.91,ENE,74,5.0,5.0,71,0.00,,---,0.00,VWS V14.01,2013-08-02 16:14:00,
2013-08-02 11:15:00,87.6,77.0,29.91,ENE,68,3.0,3.0,71,0.00,,,0.00,Wunderground v.1.15,2013-08-02 16:15:00,
2013-08-02 11:19:00,87.8,76.8,29.91,NE,51,1.0,6.0,70,0.00,,---,0.00,VWS V14.01,2013-08-02 16:19:00,
2013-08-02 11:20:00,87.8,76.8,29.91,South,184,3.0,5.0,70,0.00,,,0.00,Wunderground v.1.15,2013-08-02 16:20:00,
2013-08-02 11:24:00,88.0,76.6,29.91,SSW,203,2.0,5.0,69,0.00,,---,0.00,VWS V14.01,2013-08-02 16:24:00,
2013-08-02 11:25:00,88.0,76.5,29.91,SSW,203,3.0,5.0,69,0.00,,,0.00,Wunderground v.1.15,2013-08-02 16:25:00,
2013-08-02 11:29:00,88.6,77.6,29.91,NNE,32,3.0,5.0,70,0.00,,---,0.00,VWS V14.01,2013-08-02 16:29:00,
2013-08-02 11:30:00,88.6,77.6,29.91,NE,51,2.0,5.0,70,0.00,,,0.00,Wunderground v.1.15,2013-08-02 16:30:00,
2013-08-02 11:34:00,88.2,77.2,29.91,NE,36,3.0,6.0,70,0.00,,---,0.00,VWS V14.01,2013-08-02 16:34:00,
2013-08-02 11:35:00,88.2,77.2,29.91,NE,36,3.0,5.0,70,0.00,,,0.00,Wunderground v.1.15,2013-08-02 16:35:00,
2013-08-02 11:40:00,88.2,77.2,29.91,ENE,64,1.0,6.0,70,0.00,,---,0.00,VWS V14.01,2013-08-02 16:40:00,
2013-08-02 11:45:00,88.6,77.6,29.91,NE,37,2.0,3.0,70,0.00,,,0.00,Wunderground v.1.15,2013-08-02 16:45:00,
2013-08-02 11:50:00,88.4,77.4,29.91,NE,49,3.0,3.0,70,0.00,,,0.00,Wunderground v.1.15,2013-08-02 16:50:00,
2013-08-02 11:55:00,88.4,77.4,29.91,NE,49,3.0,3.0,70,0.00,,,0.00,Wunderground v.1.15,2013-08-02 16:55:00,
2013-08-02 12:00:00,88.8,78.2,29.91,ENE,75,2.0,2.0,71,0.00,,,0.00,Wunderground v.1.15,2013-08-02 17:00:00,
2013-08-02 12:05:00,89.5,78.4,29.91,East,81,2.0,2.0,70,0.00,,,0.00,Wunderground v.1.15,2013-08-02 17:05:00,
2013-08-02 12:06:00,89.5,78.4,29.91,East,81,1.0,2.0,70,0.00,,---,0.00,VWS V14.01,2013-08-02 17:06:00,
2013-08-02 12:10:00,90.1,78.1,29.90,SW,222,2.0,3.0,68,0.00,,,0.00,Wunderground v.1.15,2013-08-02 17:10:00,
2013-08-02 12:11:00,90.1,78.1,29.90,SSW,203,1.0,3.0,68,0.00,,---,0.00,VWS V14.01,2013-08-02 17:11:00,
2013-08-02 12:15:00,90.5,79.4,29.90,North,358,2.0,3.0,70,0.00,,,0.00,Wunderground v.1.15,2013-08-02 17:15:00,
2013-08-02 12:16:00,90.5,78.5,29.90,North,358,3.0,3.0,68,0.00,,---,0.00,VWS V14.01,2013-08-02 17:16:00,
2013-08-02 12:20:00,90.7,78.7,29.90,SSE,166,2.0,2.0,68,0.00,,,0.00,Wunderground v.1.15,2013-08-02 17:20:00,
2013-08-02 12:22:00,90.7,78.7,29.90,South,171,3.0,3.0,68,0.00,,---,0.00,VWS V14.01,2013-08-02 17:22:00,
2013-08-02 12:25:00,91.0,77.6,29.90,ENE,63,2.0,2.0,65,0.00,,,0.00,Wunderground v.1.15,2013-08-02 17:25:00,
2013-08-02 12:27:00,91.0,77.6,29.90,ENE,64,2.0,5.0,65,0.00,,---,0.00,VWS V14.01,2013-08-02 17:27:00,
2013-08-02 12:30:00,91.0,77.6,29.90,NE,47,2.0,2.0,65,0.00,,,0.00,Wunderground v.1.15,2013-08-02 17:30:00,
2013-08-02 12:32:00,91.0,77.6,29.90,NE,43,1.0,2.0,65,0.00,,---,0.00,VWS V14.01,2013-08-02 17:32:00,
2013-08-02 12:35:00,91.2,77.8,29.90,NE,43,2.0,3.0,65,0.00,,,0.00,Wunderground v.1.15,2013-08-02 17:35:00,
2013-08-02 12:38:00,91.4,78.0,29.90,NE,43,2.0,3.0,65,0.00,,---,0.00,VWS V14.01,2013-08-02 17:38:00,
2013-08-02 12:43:00,91.8,77.9,29.89,SSE,147,1.0,5.0,64,0.00,,---,0.00,VWS V14.01,2013-08-02 17:43:00,
2013-08-02 12:45:00,91.8,77.9,29.89,ENE,60,2.0,3.0,64,0.00,,,0.00,Wunderground v.1.15,2013-08-02 17:45:00,
2013-08-02 12:48:00,91.8,77.9,29.89,South,181,2.0,5.0,64,0.00,,---,0.00,VWS V14.01,2013-08-02 17:48:00,
2013-08-02 12:50:00,91.8,77.9,29.89,SW,232,2.0,3.0,64,0.00,,,0.00,Wunderground v.1.15,2013-08-02 17:50:00,
2013-08-02 12:53:00,91.8,77.9,29.89,SSE,159,1.0,3.0,64,0.00,,---,0.00,VWS V14.01,2013-08-02 17:53:00,
2013-08-02 12:55:00,91.8,77.9,29.89,SE,139,2.0,3.0,64,0.00,,,0.00,Wunderground v.1.15,2013-08-02 17:55:00,
2013-08-02 12:58:00,91.6,76.7,29.89,SE,139,0.0,3.0,62,0.00,,---,0.00,VWS V14.01,2013-08-02 17:58:00,
2013-08-02 13:00:00,91.6,77.2,29.89,SE,139,1.0,2.0,63,0.00,,,0.00,Wunderground v.1.15,2013-08-02 18:00:00,
2013-08-02 13:03:00,91.6,76.7,29.89,NE,42,1.0,2.0,62,0.00,,---,0.00,VWS V14.01,2013-08-02 18:03:00,
2013-08-02 13:05:00,91.6,76.7,29.89,NE,42,1.0,3.0,62,0.00,,,0.00,Wunderground v.1.15,2013-08-02 18:05:00,
2013-08-02 13:08:00,91.6,76.7,29.89,NE,42,0.0,2.0,62,0.00,,---,0.00,VWS V14.01,2013-08-02 18:08:00,
2013-08-02 13:10:00,91.8,78.4,29.89,NE,43,2.0,2.0,65,0.00,,,0.00,Wunderground v.1.15,2013-08-02 18:10:00,
2013-08-02 13:13:00,92.3,77.4,29.88,NNE,32,5.0,5.0,62,0.00,,---,0.00,VWS V14.01,2013-08-02 18:13:00,
2013-08-02 13:15:00,92.3,77.4,29.88,NNE,32,2.0,3.0,62,0.00,,,0.00,Wunderground v.1.15,2013-08-02 18:15:00,
2013-08-02 13:18:00,92.5,77.6,29.88,NNE,33,3.0,5.0,62,0.00,,---,0.00,VWS V14.01,2013-08-02 18:18:00,
2013-08-02 13:20:00,92.3,77.4,29.88,NNE,33,3.0,3.0,62,0.00,,,0.00,Wunderground v.1.15,2013-08-02 18:20:00,
2013-08-02 13:23:00,92.5,79.0,29.88,NNE,32,5.0,5.0,65,0.00,,---,0.00,VWS V14.01,2013-08-02 18:23:00,
2013-08-02 13:25:00,92.7,78.7,29.88,East,97,3.0,3.0,64,0.00,,,0.00,Wunderground v.1.15,2013-08-02 18:25:00,
2013-08-02 13:29:00,92.9,78.0,29.88,East,80,2.0,6.0,62,0.00,,---,0.00,VWS V14.01,2013-08-02 18:29:00,
2013-08-02 13:30:00,92.9,78.9,29.88,NNE,33,2.0,5.0,64,0.00,,,0.00,Wunderground v.1.15,2013-08-02 18:30:00,
2013-08-02 13:34:00,92.9,78.9,29.88,East,83,2.0,5.0,64,0.00,,---,0.00,VWS V14.01,2013-08-02 18:34:00,
2013-08-02 13:35:00,92.9,78.9,29.88,East,83,3.0,5.0,64,0.00,,,0.00,Wunderground v.1.15,2013-08-02 18:35:00,
2013-08-02 13:39:00,92.7,78.7,29.87,NE,42,5.0,5.0,64,0.00,,---,0.00,VWS V14.01,2013-08-02 18:39:00,
2013-08-02 13:40:00,92.7,78.7,29.87,South,188,3.0,3.0,64,0.00,,,0.00,Wunderground v.1.15,2013-08-02 18:40:00,
2013-08-02 13:44:00,92.9,78.9,29.87,East,94,2.0,3.0,64,0.00,,---,0.00,VWS V14.01,2013-08-02 18:44:00,
2013-08-02 13:49:00,92.9,78.9,29.87,SSE,149,1.0,3.0,64,0.00,,---,0.00,VWS V14.01,2013-08-02 18:49:00,
2013-08-02 13:50:00,92.9,78.9,29.87,SSE,149,2.0,2.0,64,0.00,,,0.00,Wunderground v.1.15,2013-08-02 18:50:00,
2013-08-02 13:54:00,93.6,79.6,29.86,NE,49,0.0,3.0,64,0.00,,---,0.00,VWS V14.01,2013-08-02 18:54:00,
2013-08-02 13:55:00,93.8,79.8,29.86,NE,49,2.0,3.0,64,0.00,,,0.00,Wunderground v.1.15,2013-08-02 18:55:00,
2013-08-02 13:59:00,94.0,80.0,29.86,East,81,1.0,6.0,64,0.00,,---,0.00,VWS V14.01,2013-08-02 18:59:00,
2013-08-02 14:00:00,94.0,75.4,29.86,SE,139,2.0,3.0,55,0.00,,,0.00,Wunderground v.1.15,2013-08-02 19:00:00,
2013-08-02 14:04:00,94.5,76.4,29.86,South,174,3.0,3.0,56,0.00,,---,0.00,VWS V14.01,2013-08-02 19:04:00,
2013-08-02 14:09:00,94.7,77.6,29.86,South,170,2.0,3.0,58,0.00,,---,0.00,VWS V14.01,2013-08-02 19:09:00,
2013-08-02 14:10:00,94.7,77.6,29.86,South,170,2.0,3.0,58,0.00,,,0.00,Wunderground v.1.15,2013-08-02 19:10:00,
2013-08-02 14:14:00,94.7,77.6,29.86,SSW,194,2.0,5.0,58,0.00,,---,0.00,VWS V14.01,2013-08-02 19:14:00,
2013-08-02 14:15:00,94.7,77.6,29.86,SSW,194,2.0,3.0,58,0.00,,,0.00,Wunderground v.1.15,2013-08-02 19:15:00,
2013-08-02 14:19:00,94.7,77.6,29.85,NE,54,0.0,5.0,58,0.00,,---,0.00,VWS V14.01,2013-08-02 19:19:00,
2013-08-02 14:20:00,94.7,77.6,29.85,NE,54,0.0,3.0,58,0.00,,,0.00,Wunderground v.1.15,2013-08-02 19:20:00,
2013-08-02 14:24:00,94.7,77.1,29.85,NE,50,2.0,2.0,57,0.00,,---,0.00,VWS V14.01,2013-08-02 19:24:00,
2013-08-02 14:25:00,94.7,77.1,29.85,NE,54,1.0,5.0,57,0.00,,,0.00,Wunderground v.1.15,2013-08-02 19:25:00,
2013-08-02 14:29:00,94.9,77.3,29.85,SSE,167,5.0,5.0,57,0.00,,---,0.00,VWS V14.01,2013-08-02 19:29:00,
2013-08-02 14:30:00,94.9,77.3,29.85,SSE,167,2.0,5.0,57,0.00,,,0.00,Wunderground v.1.15,2013-08-02 19:30:00,
2013-08-02 14:34:00,94.9,77.3,29.85,WSW,255,2.0,5.0,57,0.00,,---,0.00,VWS V14.01,2013-08-02 19:34:00,
2013-08-02 14:35:00,94.9,77.3,29.85,WSW,255,2.0,5.0,57,0.00,,,0.00,Wunderground v.1.15,2013-08-02 19:35:00,
2013-08-02 14:40:00,94.9,78.8,29.85,WSW,239,1.0,5.0,60,0.00,,---,0.00,VWS V14.01,2013-08-02 19:40:00,
2013-08-02 14:45:00,95.9,79.8,29.85,South,179,2.0,2.0,60,0.00,,---,0.00,VWS V14.01,2013-08-02 19:45:00,
2013-08-02 14:50:00,95.9,79.8,29.85,South,177,1.0,2.0,60,0.00,,---,0.00,VWS V14.01,2013-08-02 19:50:00,
2013-08-02 14:55:00,95.9,79.8,29.84,South,171,2.0,2.0,60,0.00,,---,0.00,VWS V14.01,2013-08-02 19:55:00,
2013-08-02 15:00:00,96.6,80.4,29.84,South,179,5.0,5.0,60,0.00,,---,0.00,VWS V14.01,2013-08-02 20:00:00,
2013-08-02 15:05:00,96.6,80.4,29.84,SSE,163,1.0,5.0,60,0.00,,---,0.00,VWS V14.01,2013-08-02 20:05:00,
2013-08-02 15:10:00,96.1,80.0,29.84,SSE,152,1.0,1.0,60,0.00,,---,0.00,VWS V14.01,2013-08-02 20:10:00,
2013-08-02 15:15:00,95.6,79.5,29.84,ENE,68,1.0,2.0,60,0.00,,---,0.00,VWS V14.01,2013-08-02 20:15:00,
2013-08-02 15:20:00,95.9,79.8,29.84,ENE,64,1.0,1.0,60,0.00,,---,0.00,VWS V14.01,2013-08-02 20:20:00,
2013-08-02 15:25:00,95.9,78.2,29.84,SSW,195,1.0,3.0,57,0.00,,,0.00,Wunderground v.1.15,2013-08-02 20:25:00,
2013-08-02 15:30:00,96.3,76.9,29.83,SSW,194,1.0,1.0,54,0.00,,,0.00,Wunderground v.1.15,2013-08-02 20:30:00,
2013-08-02 15:35:00,96.3,76.9,29.83,East,83,1.0,3.0,54,0.00,,,0.00,Wunderground v.1.15,2013-08-02 20:35:00,
2013-08-02 15:40:00,96.3,76.9,29.83,NE,49,1.0,3.0,54,0.00,,,0.00,Wunderground v.1.15,2013-08-02 20:40:00,
2013-08-02 15:41:00,96.3,77.0,29.83,NE,49,1.0,1.0,54,0.00,,---,0.00,VWS V14.01,2013-08-02 20:41:00,
2013-08-02 15:46:00,96.3,75.8,29.83,East,81,3.0,5.0,52,0.00,,---,0.00,VWS V14.01,2013-08-02 20:46:00,
2013-08-02 15:50:00,95.4,76.1,29.83,ENE,75,3.0,3.0,54,0.00,,,0.00,Wunderground v.1.15,2013-08-02 20:50:00,
2013-08-02 15:51:00,95.4,76.1,29.83,ENE,75,2.0,2.0,54,0.00,,---,0.00,VWS V14.01,2013-08-02 20:51:00,
2013-08-02 15:55:00,94.9,77.3,29.83,ENE,68,3.0,3.0,57,0.00,,,0.00,Wunderground v.1.15,2013-08-02 20:55:00,
2013-08-02 15:56:00,94.7,77.1,29.83,ENE,68,3.0,7.0,57,0.00,,---,0.00,VWS V14.01,2013-08-02 20:56:00,
2013-08-02 16:00:00,94.7,77.6,29.83,ENE,71,2.0,3.0,58,0.00,,,0.00,Wunderground v.1.15,2013-08-02 21:00:00,
2013-08-02 16:02:00,94.7,76.6,29.83,NE,47,3.0,3.0,56,0.00,,---,0.00,VWS V14.01,2013-08-02 21:02:00,
2013-08-02 16:05:00,94.7,76.6,29.83,ENE,74,2.0,3.0,56,0.00,,,0.00,Wunderground v.1.15,2013-08-02 21:05:00,
2013-08-02 16:07:00,94.7,76.6,29.83,ENE,60,1.0,5.0,56,0.00,,---,0.00,VWS V14.01,2013-08-02 21:07:00,
2013-08-02 16:10:00,94.9,76.7,29.83,East,80,2.0,5.0,56,0.00,,,0.00,Wunderground v.1.15,2013-08-02 21:10:00,
2013-08-02 16:12:00,94.9,76.8,29.83,ENE,75,2.0,6.0,56,0.00,,---,0.00,VWS V14.01,2013-08-02 21:12:00,
2013-08-02 16:15:00,94.9,76.2,29.83,ENE,74,2.0,5.0,55,0.00,,,0.00,Wunderground v.1.15,2013-08-02 21:15:00,
2013-08-02 16:18:00,94.9,76.2,29.83,ENE,74,0.0,6.0,55,0.00,,---,0.00,VWS V14.01,2013-08-02 21:18:00,
2013-08-02 16:20:00,95.1,76.4,29.83,ENE,74,2.0,2.0,55,0.00,,,0.00,Wunderground v.1.15,2013-08-02 21:20:00,
2013-08-02 16:22:00,95.1,76.4,29.83,ENE,74,0.0,2.0,55,0.00,,---,0.00,VWS V14.01,2013-08-02 21:22:00,
2013-08-02 16:25:00,95.1,76.4,29.83,ENE,74,1.0,3.0,55,0.00,,,0.00,Wunderground v.1.15,2013-08-02 21:25:00,
2013-08-02 16:28:00,95.1,77.5,29.83,ENE,74,1.0,2.0,57,0.00,,---,0.00,VWS V14.01,2013-08-02 21:28:00,
2013-08-02 16:30:00,94.9,77.3,29.83,ENE,75,1.0,3.0,57,0.00,,,0.00,Wunderground v.1.15,2013-08-02 21:30:00,
2013-08-02 16:33:00,94.7,77.1,29.83,ENE,75,1.0,1.0,57,0.00,,---,0.00,VWS V14.01,2013-08-02 21:33:00,
2013-08-02 16:35:00,94.7,77.6,29.83,ENE,75,1.0,3.0,58,0.00,,,0.00,Wunderground v.1.15,2013-08-02 21:35:00,
2013-08-02 16:38:00,94.7,77.6,29.83,ENE,75,1.0,2.0,58,0.00,,---,0.00,VWS V14.01,2013-08-02 21:38:00,
2013-08-02 16:40:00,94.7,77.1,29.83,ENE,75,1.0,3.0,57,0.00,,,0.00,Wunderground v.1.15,2013-08-02 21:40:00,
2013-08-02 16:43:00,94.7,77.6,29.83,ENE,75,0.0,2.0,58,0.00,,---,0.00,VWS V14.01,2013-08-02 21:43:00,
2013-08-02 16:45:00,94.7,77.6,29.83,ENE,75,1.0,3.0,58,0.00,,,0.00,Wunderground v.1.15,2013-08-02 21:45:00,
2013-08-02 16:49:00,94.9,77.8,29.83,ENE,74,1.0,5.0,58,0.00,,---,0.00,VWS V14.01,2013-08-02 21:49:00,
2013-08-02 16:50:00,94.9,78.3,29.83,ENE,74,1.0,1.0,59,0.00,,,0.00,Wunderground v.1.15,2013-08-02 21:50:00,
2013-08-02 16:54:00,94.9,77.8,29.83,ENE,74,2.0,2.0,58,0.00,,---,0.00,VWS V14.01,2013-08-02 21:54:00,
2013-08-02 16:55:00,94.7,77.6,29.83,ENE,74,2.0,2.0,58,0.00,,,0.00,Wunderground v.1.15,2013-08-02 21:55:00,
2013-08-02 16:59:00,94.7,77.6,29.83,ENE,74,1.0,2.0,58,0.00,,---,0.00,VWS V14.01,2013-08-02 21:59:00,
2013-08-02 17:00:00,94.5,77.4,29.83,ENE,74,1.0,3.0,58,0.00,,,0.00,Wunderground v.1.15,2013-08-02 22:00:00,
2013-08-02 17:04:00,94.3,77.3,29.83,ENE,75,0.0,1.0,58,0.00,,---,0.00,VWS V14.01,2013-08-02 22:04:00,
2013-08-02 17:05:00,94.3,77.2,29.83,ENE,75,1.0,3.0,58,0.00,,,0.00,Wunderground v.1.15,2013-08-02 22:05:00,
2013-08-02 17:09:00,94.3,79.3,29.82,ENE,75,0.0,1.0,62,0.00,,---,0.00,VWS V14.01,2013-08-02 22:09:00,
2013-08-02 17:10:00,94.5,79.5,29.83,ENE,75,0.0,3.0,62,0.00,,,0.00,Wunderground v.1.15,2013-08-02 22:10:00,
2013-08-02 17:14:00,94.3,78.8,29.82,ENE,75,1.0,2.0,61,0.00,,---,0.00,VWS V14.01,2013-08-02 22:14:00,
2013-08-02 17:15:00,94.3,78.8,29.82,ENE,74,1.0,3.0,61,0.00,,,0.00,Wunderground v.1.15,2013-08-02 22:15:00,
2013-08-02 17:20:00,94.3,79.8,29.82,NE,50,2.0,3.0,63,0.00,,---,0.00,VWS V14.01,2013-08-02 22:20:00,
2013-08-02 17:25:00,94.0,79.0,29.82,NE,56,2.0,3.0,62,0.00,,---,0.00,VWS V14.01,2013-08-02 22:25:00,
2013-08-02 17:30:00,94.0,78.0,29.82,ENE,74,3.0,3.0,60,0.00,,---,0.00,VWS V14.01,2013-08-02 22:30:00,
2013-08-02 17:35:00,93.8,77.8,29.82,East,83,3.0,3.0,60,0.00,,,0.00,Wunderground v.1.15,2013-08-02 22:35:00,
2013-08-02 17:40:00,93.8,77.8,29.82,East,83,2.0,2.0,60,0.00,,,0.00,Wunderground v.1.15,2013-08-02 22:40:00,
2013-08-02 17:45:00,93.6,77.6,29.82,East,92,2.0,3.0,60,0.00,,,0.00,Wunderground v.1.15,2013-08-02 22:45:00,
2013-08-02 17:46:00,93.6,77.6,29.82,East,91,2.0,5.0,60,0.00,,---,0.00,VWS V14.01,2013-08-02 22:46:00,
2013-08-02 17:50:00,93.4,77.4,29.82,East,87,2.0,3.0,60,0.00,,,0.00,Wunderground v.1.15,2013-08-02 22:50:00,
2013-08-02 17:52:00,93.4,77.4,29.82,East,81,2.0,5.0,60,0.00,,---,0.00,VWS V14.01,2013-08-02 22:52:00,
2013-08-02 17:55:00,93.4,78.4,29.82,East,81,2.0,3.0,62,0.00,,,0.00,Wunderground v.1.15,2013-08-02 22:55:00,
2013-08-02 17:57:00,93.4,77.9,29.82,East,81,2.0,5.0,61,0.00,,---,0.00,VWS V14.01,2013-08-02 22:57:00,
2013-08-02 18:00:00,93.2,77.7,29.82,East,81,1.0,3.0,61,0.00,,,0.00,Wunderground v.1.15,2013-08-02 23:00:00,
2013-08-02 18:02:00,93.2,77.8,29.82,East,81,0.0,1.0,61,0.00,,---,0.00,VWS V14.01,2013-08-02 23:02:00,
2013-08-02 18:05:00,93.2,78.2,29.82,East,81,1.0,3.0,62,0.00,,,0.00,Wunderground v.1.15,2013-08-02 23:05:00,
2013-08-02 18:07:00,93.2,78.2,29.82,East,81,1.0,3.0,62,0.00,,---,0.00,VWS V14.01,2013-08-02 23:07:00,
2013-08-02 18:10:00,92.9,78.9,29.82,ENE,78,1.0,1.0,64,0.00,,,0.00,Wunderground v.1.15,2013-08-02 23:10:00,
2013-08-02 18:12:00,92.9,78.0,29.82,ENE,78,1.0,1.0,62,0.00,,---,0.00,VWS V14.01,2013-08-02 23:12:00,
2013-08-02 18:15:00,92.7,77.3,29.82,ENE,78,1.0,1.0,61,0.00,,,0.00,Wunderground v.1.15,2013-08-02 23:15:00,
2013-08-02 18:18:00,92.7,78.3,29.82,ENE,64,5.0,6.0,63,0.00,,---,0.00,VWS V14.01,2013-08-02 23:18:00,
2013-08-02 18:20:00,92.7,77.8,29.82,ENE,60,1.0,1.0,62,0.00,,,0.00,Wunderground v.1.15,2013-08-02 23:20:00,
2013-08-02 18:23:00,92.5,77.6,29.82,East,81,0.0,5.0,62,0.00,,---,0.00,VWS V14.01,2013-08-02 23:23:00,
2013-08-02 18:25:00,92.5,77.6,29.82,ENE,73,1.0,1.0,62,0.00,,,0.00,Wunderground v.1.15,2013-08-02 23:25:00,
2013-08-02 18:28:00,92.3,77.9,29.82,East,99,0.0,5.0,63,0.00,,---,0.00,VWS V14.01,2013-08-02 23:28:00,
2013-08-02 18:30:00,92.3,78.4,29.82,East,99,1.0,1.0,64,0.00,,,0.00,Wunderground v.1.15,2013-08-02 23:30:00,
2013-08-02 18:33:00,92.5,78.6,29.82,East,99,0.0,0.0,64,0.00,,---,0.00,VWS V14.01,2013-08-02 23:33:00,
2013-08-02 18:35:00,92.5,78.5,29.82,East,99,0.0,1.0,64,0.00,,,0.00,Wunderground v.1.15,2013-08-02 23:35:00,
2013-08-02 18:38:00,92.5,78.6,29.82,East,99,0.0,0.0,64,0.00,,---,0.00,VWS V14.01,2013-08-02 23:38:00,
2013-08-02 18:40:00,92.5,78.5,29.82,East,98,0.0,0.0,64,0.00,,,0.00,Wunderground v.1.15,2013-08-02 23:40:00,
2013-08-02 18:43:00,92.5,78.6,29.82,East,98,0.0,0.0,64,0.00,,---,0.00,VWS V14.01,2013-08-02 23:43:00,
2013-08-02 18:45:00,92.5,78.5,29.82,East,98,0.0,0.0,64,0.00,,,0.00,Wunderground v.1.15,2013-08-02 23:45:00,
2013-08-02 18:49:00,92.5,79.0,29.82,East,98,0.0,0.0,65,0.00,,---,0.00,VWS V14.01,2013-08-02 23:49:00,
2013-08-02 18:50:00,92.5,79.5,29.82,East,98,0.0,0.0,66,0.00,,,0.00,Wunderground v.1.15,2013-08-02 23:50:00,
2013-08-02 18:54:00,92.3,79.8,29.82,East,99,0.0,1.0,67,0.00,,---,0.00,VWS V14.01,2013-08-02 23:54:00,
2013-08-02 18:55:00,92.3,79.8,29.82,East,99,0.0,0.0,67,0.00,,,0.00,Wunderground v.1.15,2013-08-02 23:55:00,
2013-08-02 18:59:00,92.3,79.8,29.81,East,99,0.0,1.0,67,0.00,,---,0.00,VWS V14.01,2013-08-02 23:59:00,
2013-08-02 19:00:00,92.1,80.9,29.81,East,99,0.0,0.0,70,0.00,,,0.00,Wunderground v.1.15,2013-08-03 00:00:00,
2013-08-02 19:05:00,91.6,80.9,29.81,East,99,1.0,2.0,71,0.00,,---,0.00,VWS V14.01,2013-08-03 00:05:00,
2013-08-02 19:09:00,91.0,81.1,29.81,East,99,0.0,2.0,73,0.00,,---,0.00,VWS V14.01,2013-08-03 00:09:00,
2013-08-02 19:10:00,91.0,81.1,29.81,East,99,1.0,1.0,73,0.00,,,0.00,Wunderground v.1.15,2013-08-03 00:10:00,
2013-08-02 19:14:00,90.7,81.3,29.81,East,99,0.0,0.0,74,0.00,,---,0.00,VWS V14.01,2013-08-03 00:14:00,
2013-08-02 19:19:00,90.3,80.9,29.81,East,99,0.0,0.0,74,0.00,,---,0.00,VWS V14.01,2013-08-03 00:19:00,
2013-08-02 19:25:00,90.1,80.3,29.81,East,99,0.0,5.0,73,0.00,,,0.00,Wunderground v.1.15,2013-08-03 00:25:00,
2013-08-02 19:30:00,89.7,79.9,29.82,East,99,0.0,5.0,73,0.00,,,0.00,Wunderground v.1.15,2013-08-03 00:30:00,
2013-08-02 19:35:00,89.3,79.5,29.82,East,99,1.0,5.0,73,0.00,,,0.00,Wunderground v.1.15,2013-08-03 00:35:00,
2013-08-02 19:40:00,89.0,78.4,29.82,East,92,1.0,1.0,71,0.00,,,0.00,Wunderground v.1.15,2013-08-03 00:40:00,
2013-08-02 19:42:00,88.8,78.2,29.82,East,92,1.0,1.0,71,0.00,,---,0.00,VWS V14.01,2013-08-03 00:42:00,
2013-08-02 19:45:00,88.8,78.2,29.82,East,92,1.0,5.0,71,0.00,,,0.00,Wunderground v.1.15,2013-08-03 00:45:00,
2013-08-02 19:47:00,88.8,78.2,29.82,East,92,1.0,1.0,71,0.00,,---,0.00,VWS V14.01,2013-08-03 00:47:00,
2013-08-02 19:50:00,88.6,78.4,29.82,East,88,0.0,5.0,72,0.00,,,0.00,Wunderground v.1.15,2013-08-03 00:50:00,
2013-08-02 19:52:00,88.4,77.8,29.82,East,88,0.0,0.0,71,0.00,,---,0.00,VWS V14.01,2013-08-03 00:52:00,
2013-08-02 19:55:00,88.2,78.4,29.83,East,88,0.0,5.0,73,0.00,,,0.00,Wunderground v.1.15,2013-08-03 00:55:00,
2013-08-02 19:57:00,88.2,78.4,29.83,East,88,0.0,0.0,73,0.00,,---,0.00,VWS V14.01,2013-08-03 00:57:00,
2013-08-02 20:00:00,88.0,78.7,29.83,East,88,0.0,5.0,74,0.00,,,0.00,Wunderground v.1.15,2013-08-03 01:00:00,
2013-08-02 20:02:00,87.8,78.9,29.82,East,88,0.0,0.0,75,0.00,,---,0.00,VWS V14.01,2013-08-03 01:02:00,
2013-08-02 20:05:00,87.6,78.7,29.83,East,88,0.0,5.0,75,0.00,,,0.00,Wunderground v.1.15,2013-08-03 01:05:00,
2013-08-02 20:07:00,87.2,78.3,29.83,East,88,0.0,0.0,75,0.00,,---,0.00,VWS V14.01,2013-08-03 01:07:00,
2013-08-02 20:10:00,87.0,78.5,29.83,East,88,0.0,5.0,76,0.00,,,0.00,Wunderground v.1.15,2013-08-03 01:10:00,
2013-08-02 20:12:00,86.7,78.2,29.83,East,88,0.0,0.0,76,0.00,,---,0.00,VWS V14.01,2013-08-03 01:12:00,
2013-08-02 20:15:00,86.5,78.4,29.83,East,88,0.0,5.0,77,0.00,,,0.00,Wunderground v.1.15,2013-08-03 01:15:00,
2013-08-02 20:17:00,86.3,78.6,29.83,East,88,0.0,0.0,78,0.00,,---,0.00,VWS V14.01,2013-08-03 01:17:00,
2013-08-02 20:20:00,86.1,78.4,29.83,East,88,0.0,5.0,78,0.00,,,0.00,Wunderground v.1.15,2013-08-03 01:20:00,
2013-08-02 20:23:00,85.9,78.6,29.83,East,88,0.0,0.0,79,0.00,,---,0.00,VWS V14.01,2013-08-03 01:23:00,
2013-08-02 20:25:00,85.7,78.4,29.83,East,88,0.0,5.0,79,0.00,,,0.00,Wunderground v.1.15,2013-08-03 01:25:00,
2013-08-02 20:28:00,85.5,78.2,29.83,East,88,0.0,0.0,79,0.00,,---,0.00,VWS V14.01,2013-08-03 01:28:00,
2013-08-02 20:30:00,85.5,78.6,29.83,East,88,0.0,5.0,80,0.00,,,0.00,Wunderground v.1.15,2013-08-03 01:30:00,
2013-08-02 20:33:00,85.3,78.4,29.83,East,88,0.0,0.0,80,0.00,,---,0.00,VWS V14.01,2013-08-03 01:33:00,
2013-08-02 20:35:00,85.3,78.4,29.83,East,88,0.0,5.0,80,0.00,,,0.00,Wunderground v.1.15,2013-08-03 01:35:00,
2013-08-02 20:38:00,84.9,78.0,29.83,East,88,0.0,0.0,80,0.00,,---,0.00,VWS V14.01,2013-08-03 01:38:00,
2013-08-02 20:40:00,84.9,78.0,29.83,East,88,0.0,5.0,80,0.00,,,0.00,Wunderground v.1.15,2013-08-03 01:40:00,
2013-08-02 20:43:00,84.7,77.8,29.83,East,88,0.0,0.0,80,0.00,,---,0.00,VWS V14.01,2013-08-03 01:43:00,
2013-08-02 20:45:00,84.7,77.8,29.83,East,88,0.0,5.0,80,0.00,,,0.00,Wunderground v.1.15,2013-08-03 01:45:00,
2013-08-02 20:48:00,84.5,78.0,29.83,East,88,0.0,0.0,81,0.00,,---,0.00,VWS V14.01,2013-08-03 01:48:00,
2013-08-02 20:50:00,84.5,78.0,29.83,East,88,0.0,5.0,81,0.00,,,0.00,Wunderground v.1.15,2013-08-03 01:50:00,
2013-08-02 20:53:00,84.3,77.8,29.83,East,88,0.0,0.0,81,0.00,,---,0.00,VWS V14.01,2013-08-03 01:53:00,
2013-08-02 20:55:00,84.3,78.2,29.84,East,88,0.0,5.0,82,0.00,,,0.00,Wunderground v.1.15,2013-08-03 01:55:00,
2013-08-02 20:58:00,84.0,78.3,29.84,East,88,0.0,0.0,83,0.00,,---,0.00,VWS V14.01,2013-08-03 01:58:00,
2013-08-02 21:00:00,84.0,78.3,29.84,East,88,0.0,5.0,83,0.00,,,0.00,Wunderground v.1.15,2013-08-03 02:00:00,
2013-08-02 21:03:00,83.8,78.1,29.84,East,88,0.0,0.0,83,0.00,,---,0.00,VWS V14.01,2013-08-03 02:03:00,
2013-08-02 21:05:00,83.8,78.1,29.84,East,88,0.0,5.0,83,0.00,,,0.00,Wunderground v.1.15,2013-08-03 02:05:00,
2013-08-02 21:08:00,83.4,77.7,29.84,East,88,0.0,0.0,83,0.00,,---,0.00,VWS V14.01,2013-08-03 02:08:00,
2013-08-02 21:10:00,83.4,77.7,29.84,East,88,0.0,5.0,83,0.00,,,0.00,Wunderground v.1.15,2013-08-03 02:10:00,
2013-08-02 21:14:00,83.2,77.5,29.84,East,88,0.0,0.0,83,0.00,,---,0.00,VWS V14.01,2013-08-03 02:14:00,
2013-08-02 21:15:00,83.0,77.7,29.84,East,88,0.0,5.0,84,0.00,,,0.00,Wunderground v.1.15,2013-08-03 02:15:00,
2013-08-02 21:20:00,82.8,77.8,29.84,East,88,1.0,1.0,85,0.00,,---,0.00,VWS V14.01,2013-08-03 02:20:00,
2013-08-02 21:25:00,82.6,77.3,29.84,East,88,0.0,1.0,84,0.00,,---,0.00,VWS V14.01,2013-08-03 02:25:00,
2013-08-02 21:30:00,82.6,76.9,29.84,East,88,0.0,1.0,83,0.00,,---,0.00,VWS V14.01,2013-08-03 02:30:00,
2013-08-02 21:34:00,82.6,76.9,29.85,East,88,0.0,0.0,83,0.00,,---,0.00,VWS V14.01,2013-08-03 02:34:00,
2013-08-02 21:35:00,82.6,76.9,29.85,East,88,0.0,5.0,83,0.00,,,0.00,Wunderground v.1.15,2013-08-03 02:35:00,
2013-08-02 21:40:00,82.6,76.9,29.85,East,88,0.0,0.0,83,0.00,,---,0.00,VWS V14.01,2013-08-03 02:40:00,
2013-08-02 21:45:00,82.4,76.7,29.85,East,88,0.0,0.0,83,0.00,,---,0.00,VWS V14.01,2013-08-03 02:45:00,
2013-08-02 21:50:00,82.2,76.9,29.85,East,88,0.0,5.0,84,0.00,,,0.00,Wunderground v.1.15,2013-08-03 02:50:00,
2013-08-02 21:55:00,82.2,76.9,29.85,East,88,0.0,5.0,84,0.00,,,0.00,Wunderground v.1.15,2013-08-03 02:55:00,
2013-08-02 21:56:00,82.2,76.9,29.85,East,88,0.0,0.0,84,0.00,,---,0.00,VWS V14.01,2013-08-03 02:56:00,
2013-08-02 22:00:00,82.0,76.7,29.85,East,88,0.0,5.0,84,0.00,,,0.00,Wunderground v.1.15,2013-08-03 03:00:00,
2013-08-02 22:01:00,82.0,76.7,29.85,East,88,0.0,0.0,84,0.00,,---,0.00,VWS V14.01,2013-08-03 03:01:00,
2013-08-02 22:05:00,81.8,76.8,29.85,East,88,0.0,5.0,85,0.00,,,0.00,Wunderground v.1.15,2013-08-03 03:05:00,
2013-08-02 22:10:00,81.8,76.5,29.85,East,90,0.0,5.0,84,0.00,,,0.00,Wunderground v.1.15,2013-08-03 03:10:00,
2013-08-02 22:11:00,81.8,76.5,29.85,East,90,0.0,0.0,84,0.00,,---,0.00,VWS V14.01,2013-08-03 03:11:00,
2013-08-02 22:15:00,81.8,76.5,29.85,East,90,0.0,5.0,84,0.00,,,0.00,Wunderground v.1.15,2013-08-03 03:15:00,
2013-08-02 22:16:00,81.8,76.5,29.85,East,90,0.0,0.0,84,0.00,,---,0.00,VWS V14.01,2013-08-03 03:16:00,
2013-08-02 22:20:00,81.6,76.3,29.85,East,90,0.0,5.0,84,0.00,,,0.00,Wunderground v.1.15,2013-08-03 03:20:00,
2013-08-02 22:21:00,81.6,76.3,29.85,East,90,0.0,0.0,84,0.00,,---,0.00,VWS V14.01,2013-08-03 03:21:00,
2013-08-02 22:25:00,81.6,76.3,29.85,East,90,0.0,5.0,84,0.00,,,0.00,Wunderground v.1.15,2013-08-03 03:25:00,
2013-08-02 22:26:00,81.6,76.3,29.85,East,90,0.0,0.0,84,0.00,,---,0.00,VWS V14.01,2013-08-03 03:26:00,
2013-08-02 22:30:00,81.8,76.5,29.85,East,90,0.0,5.0,84,0.00,,,0.00,Wunderground v.1.15,2013-08-03 03:30:00,
2013-08-02 22:31:00,81.8,76.5,29.85,East,90,0.0,0.0,84,0.00,,---,0.00,VWS V14.01,2013-08-03 03:31:00,
2013-08-02 22:35:00,81.8,76.1,29.85,South,177,0.0,5.0,83,0.00,,,0.00,Wunderground v.1.15,2013-08-03 03:35:00,
2013-08-02 22:37:00,81.8,76.1,29.85,South,177,0.0,2.0,83,0.00,,---,0.00,VWS V14.01,2013-08-03 03:37:00,
2013-08-02 22:40:00,82.0,76.3,29.85,South,177,0.0,5.0,83,0.00,,,0.00,Wunderground v.1.15,2013-08-03 03:40:00,
2013-08-02 22:42:00,82.0,76.3,29.85,South,177,1.0,1.0,83,0.00,,---,0.00,VWS V14.01,2013-08-03 03:42:00,
2013-08-02 22:45:00,82.2,76.2,29.85,South,188,0.0,5.0,82,0.00,,,0.00,Wunderground v.1.15,2013-08-03 03:45:00,
2013-08-02 22:47:00,82.2,76.2,29.86,South,188,0.0,1.0,82,0.00,,---,0.00,VWS V14.01,2013-08-03 03:47:00,
2013-08-02 22:50:00,82.2,76.2,29.86,South,187,0.0,5.0,82,0.00,,,0.00,Wunderground v.1.15,2013-08-03 03:50:00,
2013-08-02 22:52:00,82.2,76.2,29.86,South,187,0.0,0.0,82,0.00,,---,0.00,VWS V14.01,2013-08-03 03:52:00,
2013-08-02 22:55:00,82.2,76.2,29.86,South,187,0.0,5.0,82,0.00,,,0.00,Wunderground v.1.15,2013-08-03 03:55:00,
2013-08-02 22:57:00,82.2,76.2,29.86,South,187,0.0,3.0,82,0.00,,---,0.00,VWS V14.01,2013-08-03 03:57:00,
2013-08-02 23:00:00,82.2,76.2,29.86,South,187,0.0,5.0,82,0.00,,,0.00,Wunderground v.1.15,2013-08-03 04:00:00,
2013-08-02 23:01:00,82.2,76.2,29.86,South,187,1.0,1.0,82,0.00,,---,0.00,VWS V14.01,2013-08-03 04:01:00,
2013-08-02 23:05:00,82.2,76.2,29.85,South,187,0.0,5.0,82,0.00,,,0.00,Wunderground v.1.15,2013-08-03 04:05:00,
2013-08-02 23:06:00,82.2,76.2,29.85,South,187,0.0,1.0,82,0.00,,---,0.00,VWS V14.01,2013-08-03 04:06:00,
2013-08-02 23:10:00,82.2,76.2,29.85,South,187,0.0,5.0,82,0.00,,,0.00,Wunderground v.1.15,2013-08-03 04:10:00,
2013-08-02 23:11:00,82.2,76.2,29.85,South,187,0.0,0.0,82,0.00,,---,0.00,VWS V14.01,2013-08-03 04:11:00,
2013-08-02 23:15:00,82.0,76.3,29.85,South,186,0.0,5.0,83,0.00,,,0.00,Wunderground v.1.15,2013-08-03 04:15:00,
2013-08-02 23:17:00,82.0,76.3,29.85,South,186,1.0,2.0,83,0.00,,---,0.00,VWS V14.01,2013-08-03 04:17:00,
2013-08-02 23:20:00,82.0,76.3,29.85,South,186,1.0,5.0,83,0.00,,,0.00,Wunderground v.1.15,2013-08-03 04:20:00,
2013-08-02 23:22:00,82.0,76.3,29.85,South,186,1.0,1.0,83,0.00,,---,0.00,VWS V14.01,2013-08-03 04:22:00,
2013-08-02 23:25:00,81.8,76.1,29.85,South,186,1.0,5.0,83,0.00,,,0.00,Wunderground v.1.15,2013-08-03 04:25:00,
2013-08-02 23:27:00,81.8,76.1,29.85,South,186,1.0,2.0,83,0.00,,---,0.00,VWS V14.01,2013-08-03 04:27:00,
2013-08-02 23:30:00,81.8,76.1,29.85,South,186,1.0,5.0,83,0.00,,,0.00,Wunderground v.1.15,2013-08-03 04:30:00,
2013-08-02 23:32:00,81.8,76.1,29.86,South,186,1.0,2.0,83,0.00,,---,0.00,VWS V14.01,2013-08-03 04:32:00,
2013-08-02 23:35:00,81.6,75.9,29.86,South,186,1.0,5.0,83,0.00,,,0.00,Wunderground v.1.15,2013-08-03 04:35:00,
2013-08-02 23:37:00,81.6,75.9,29.86,South,186,1.0,2.0,83,0.00,,---,0.00,VWS V14.01,2013-08-03 04:37:00,
2013-08-02 23:40:00,81.6,75.9,29.85,South,186,1.0,5.0,83,0.00,,,0.00,Wunderground v.1.15,2013-08-03 04:40:00,
2013-08-02 23:42:00,81.4,76.1,29.86,South,186,0.0,1.0,84,0.00,,---,0.00,VWS V14.01,2013-08-03 04:42:00,
2013-08-02 23:45:00,81.4,76.1,29.85,South,186,1.0,5.0,84,0.00,,,0.00,Wunderground v.1.15,2013-08-03 04:45:00,
2013-08-02 23:48:00,81.2,75.6,29.86,South,186,1.0,2.0,83,0.00,,---,0.00,VWS V14.01,2013-08-03 04:48:00,
2013-08-02 23:50:00,81.2,75.9,29.86,South,186,0.0,5.0,84,0.00,,,0.00,Wunderground v.1.15,2013-08-03 04:50:00,
2013-08-02 23:53:00,81.2,75.6,29.86,South,186,1.0,1.0,83,0.00,,---,0.00,VWS V14.01,2013-08-03 04:53:00,
2013-08-02 23:55:00,81.1,75.4,29.86,South,186,1.0,5.0,83,0.00,,,0.00,Wunderground v.1.15,2013-08-03 04:55:00,
2013-08-02 23:58:00,81.1,75.4,29.86,South,186,1.0,2.0,83,0.00,,---,0.00,VWS V14.01,2013-08-03 04:58:00,